sat.trackr.live / text

‹ back to catalog

STARLINK-6349

NORAD 57241 · 2023-094Z

PAYLOAD ACTIVE UNKNOWN

§ Identity

Operator
Country
US
Launch date
2023-07-07
Launch site
AFWTR
Launch vehicle
Mass (kg)
RCS (m²)

Purposes: comms

External: N2YO · Heavens-Above · Gunter

§ Orbital elements

Epoch: 2026-05-24T18:24:26.737632Z

Period
94.27 min
Inclination
43.0000°
Eccentricity
0.0001471
Mean motion
15.27577948 rev/d
Perigee alt
482.0 km
Apogee alt
484.1 km
Semi-major
6,861.2 km
B*
2.5295e-5
RAAN
310.3703°
Arg perigee
248.9039°
Mean anomaly
111.1655°
Rev number
15,887

§ Raw data

STARLINK-63491 57241U 23094Z   26144.76697613  .00000434  00000+0  25295-4 0  99962 57241  43.0000 310.3703 0001471 248.9039 111.1655 15.27577948158877

JSON: /api/v1/satellites/57241 · /tle

For live sub-satellite position, see the globe view (requires WebGL).

§ Visibility from observer

Set your observer location to see the next 7 days of passes ≥ 10°. The values pass through the URL so the page stays shareable.

No JS? Fill the form by hand. The geolocation button needs JavaScript.